{"data":{"norad_id":87456,"intl_designator":"","name":"UNKNOWN","alt_names":[],"object_type":"UNKNOWN","status":"UNKNOWN","operator":null,"country":null,"launch_date":null,"launch_site_code":null,"launch_vehicle":null,"mission":null,"orbit_class":"UNKNOWN","rcs_meters":null,"size_class":null,"mass_kg":null,"dimensions":null,"purposes":[],"wikipedia_slug":null,"has_3d_model":false,"image_url":null,"decayed_at":null,"tle_current":{"epoch":"2026-09-17T20:41:34.647648Z","epoch_age_seconds":242389,"freshness":"STALE","line1":"1 87456U          26260.86220657  .00005796  00000+0  81928-3 0  9999","line2":"2 87456  65.7651  67.2675 0505036 223.1222 132.9257 14.16733869651007","mean_motion":14.16733869,"eccentricity":0.0505036,"inclination_deg":65.7651,"raan_deg":67.2675,"arg_perigee_deg":223.1222,"mean_anomaly_deg":132.9257,"bstar":0.00081928,"rev_number":65100,"period_min":101.6422372267,"perigee_km":472.05871040363,"apogee_km":1200.7808921411,"semimajor_km":7214.5568012724,"source":"CELESTRAK","updated_at":"2026-09-20T09:00:32.475235Z"}}}